Simultaneous Nadir Overpasses (SNOs) Predictions

Prediction of SNOs between AQUA and METOP-C Satellite Orbit:

Table of predicted SNOs for the next 14.0 days since TLE Epoch: 2/5/2022
Index Date (AQUA) Time (AQUA) Lat,Lon (AQUA) SZA (AQUA ) Date (METOP-C) Time (METOP-C) Lat,Lon (METOP-C) SZA (METOP-C ) Distance(km) Time Diff (sec)
1 02/07/2022 01:36:59 -73.72, -29.63 90.83 02/07/2022 01:35:57 -73.73, -29.66 90.80 1.97 62
2 02/07/2022 02:26:28 73.80, 137.82 89.26 02/07/2022 02:26:35 73.78, 137.79 89.23 2.74 7
3 02/07/2022 03:16:00 -74.13, -55.28 90.40 02/07/2022 03:17:10 -74.16, -53.97 90.45 39.78 70
4 02/09/2022 21:11:11 -73.75, 36.76 91.69 02/09/2022 21:10:19 -73.75, 36.78 91.68 0.81 52
5 02/09/2022 22:00:39 73.79,-155.68 88.34 02/09/2022 22:00:57 73.79,-155.79 88.35 3.29 18
6 02/09/2022 22:50:18 -74.52, 10.25 90.87 02/09/2022 22:51:23 -74.56, 13.47 90.97 95.67 65
7 02/12/2022 16:45:21 -73.76, 103.20 92.60 02/12/2022 16:44:40 -73.75, 103.20 92.60 0.90 41
8 02/12/2022 17:34:50 73.85, -89.36 87.49 02/12/2022 17:35:17 73.84, -89.26 87.46 3.60 27
9 02/15/2022 12:19:31 -73.75, 169.70 93.58 02/15/2022 12:19:02 -73.75, 169.62 93.56 2.62 29
10 02/15/2022 13:09:00 73.84, -22.87 86.52 02/15/2022 13:09:39 73.83, -22.86 86.50 1.05 39
11 02/18/2022 07:04:01 73.02, 70.05 84.67 02/18/2022 07:02:56 72.99, 66.99 84.80 99.61 65
12 02/18/2022 07:53:42 -73.82,-123.98 94.49 02/18/2022 07:53:23 -73.80,-123.87 94.50 3.95 19
13 02/18/2022 08:43:10 73.86, 43.56 85.55 02/18/2022 08:44:00 73.87, 43.65 85.55 3.03 50



Historial Predications of SNOs between AQUA and METOP-C
